Regional Weather Roundup
Issued by NWS Albany, NY

Home | Current Version | Previous Version | Text Only | Print | Product List | Glossary On
Versions: 1 2 3 4 5 6 7 8 9 10 11 12 13 14 15 16 17 18 19 20 21 22 23 24 25 26 27 28 29 30 31 32 33 34 35 36 37 38 39 40 41 42 43 44 45 46 47 48 49 50
000
ASUS41 KALY 220810
RWRALY

NEW YORK STATE HOURLY WEATHER ROUNDUP
NATIONAL WEATHER SERVICE ALBANY NY
400 AM EDT FRI MAY 22 2015

NOTE: "FAIR" INDICATES FEW OR NO CLOUDS BELOW 12,000 FEET WITH NO
SIGNIFICANT WEATHER AND/OR NO OBSTRUCTIONS TO VISIBILITY.

NYZ032-033-038>043-046>054-057>066-NYZ062>081-220900-
EAST


CITY           SKY/WX    TMP DP  RH WIND       PRES   REMARKS
ALBANY         CLOUDY    55  39  54 W7        29.83S
GLENS FALLS    PTCLDY    49  42  77 CALM      29.81R
POUGHKEEPSIE   CLOUDY    54  46  74 CALM      29.86R
NEWBURGH       MOCLDY    52  46  82 NW8       29.87S
MONTGOMERY     CLOUDY    51  47  86 SW3       29.86S
WHITE PLAINS   CLOUDY    54  43  66 NW9       29.84S
ISLIP          CLOUDY    50  47  89 SW3       29.84S
NEW YORK CITY  CLOUDY    56  45  66 NW8       29.85S
CENTRAL PARK   CLOUDY    56  44  64 CALM      29.88S
$$

NYZ005>009-017-018-044>046-055-056-220900-
CENTRAL


CITY           SKY/WX    TMP DP  RH WIND       PRES   REMARKS
FULTON         CLOUDY    50  37  61 W5        29.84S
SYRACUSE       CLOUDY    53  36  52 SW12      29.84S
ROME           CLEAR     43  39  86 CALM      29.86S
ELMIRA         CLEAR     47  40  76 SW9       29.89S
BINGHAMTON     CLEAR     44  39  82 W8        29.87S
MONTICELLO     PTCLDY    45  43  93 W3        29.88S
$$

NYZ026>034-041>043-220900-
NORTH


CITY           SKY/WX    TMP DP  RH WIND       PRES   REMARKS
WATERTOWN      CLOUDY    51  37  58 W12       29.82S
FORT DRUM      NOT AVBL
MASSENA        CLOUDY    52  37  56 SW8       29.79R
SARANAC LAKE   MOCLDY    45  34  65 S3        29.77F
PLATTSBURGH    CLOUDY    55  33  43 CALM      29.76S
$$

NYZ001>004-010>016-019>021-220900-
WEST


CITY           SKY/WX    TMP DP  RH WIND       PRES   REMARKS
NIAGARA FALLS  PTCLDY    47  37  68 W9        29.89S
BUFFALO        PTCLDY    50  41  71 SW10      29.91R
DUNKIRK        CLOUDY    53  41  63 W15G21    29.95R
JAMESTOWN      PTCLDY    43  36  75 W8        29.95S
WELLSVILLE     CLEAR     46  33  60 W10       29.93S
ROCHESTER      MOCLDY    53  38  56 W14       29.87S
PENN YAN       PTCLDY    52  36  54 S9        29.87S
$$

             KEY
       WCI = WIND CHILL INDEX
       VSB = VISIBILITY
       HX  = HEAT INDEX
$$


USA.gov is the U.S. government's official web portal to all federal, state and local government web resources and services.